sat.trackr.live / text

‹ back to catalog

STARLINK-30432

NORAD 57864 · 2023-144A

PAYLOAD ACTIVE UNKNOWN

§ Identity

Operator
Country
US
Launch date
2023-09-16
Launch site
AFETR
Launch vehicle
Mass (kg)
RCS (m²)

Purposes: comms

External: N2YO · Heavens-Above · Gunter

§ Orbital elements

Epoch: 2026-05-25T05:18:15.214752Z

Period
94.27 min
Inclination
42.9979°
Eccentricity
0.0000715
Mean motion
15.27573927 rev/d
Perigee alt
482.6 km
Apogee alt
483.6 km
Semi-major
6,861.2 km
B*
-1.9377e-5
RAAN
212.8512°
Arg perigee
282.0805°
Mean anomaly
77.9966°
Rev number
14,930

§ Raw data

STARLINK-304321 57864U 23144A   26145.22100943 -.00000795  00000+0 -19377-4 0  99962 57864  42.9979 212.8512 0000715 282.0805  77.9966 15.27573927149300

JSON: /api/v1/satellites/57864 · /tle

For live sub-satellite position, see the globe view (requires WebGL).

§ Visibility from observer

Set your observer location to see the next 7 days of passes ≥ 10°. The values pass through the URL so the page stays shareable.

No JS? Fill the form by hand. The geolocation button needs JavaScript.